Location: Lugrin
(46.4033°N, 6.6674°E)
Time: 02:37:06
(UTC+00:00)

Cosmos 1603 - Pass Details

Date: 18 September 2020
Orbit: 832 x 858 km, 71.0° (Epoch: 29 October)

Event Time Altitude Azimuth Distance (km) Brightness Sun altitude
Rises 18:21:54 0° 332° (NNW) 3,420 7.5 -8.3°
Reaches altitude 10° 18:24:21 10° 331° (NNW) 2,477 6.7 -8.7°
Maximum altitude 18:30:02 79° 247° (WSW) 861 3.9 -9.7°
Drops below altitude 10° 18:35:39 10° 161° (SSE) 2,444 5.8 -10.6°
Sets 18:38:04 0° 160° (SSE) 3,371 6.5 -11.0°
